FW7926 Weather Reports


time (UTC)temp
C
wind
direction
speed
KPH
gust
KPH
rain 1hr
cm
rain 24hr
cm
rain mn
cm
humidity
%
barometer
mb
20260905224440 36 51 1.6 8.0 0.00 0.00 0.00 56 1012.9
20260905223940 36 29 1.6 8.0 0.00 0.00 0.00 55 1012.7
20260905223441 36 68 3.2 9.7 0.00 0.00 0.00 55 1012.7
20260905223205 36 77 3.2 12.9 0.00 0.00 0.00 54 1012.7
20260905222928 36 19 3.2 12.9 0.00 0.00 0.00 52 1012.8
20260905221938 36 344 1.6 14.5 0.00 0.00 0.00 52 1012.8
20260905221658 36 102 3.2 14.5 0.00 0.00 0.00 52 1012.7
20260905220942 36 12 3.2 14.5 0.00 0.00 0.00 52 1012.7
20260905220442 36 351 4.8 14.5 0.00 0.00 0.00 52 1012.7
20260905215706 36 10 3.2 12.9 0.00 0.00 0.00 54 1012.6
20260905214938 36 24 3.2 8.0 0.00 0.00 0.00 56 1012.7
20260905214439 35 74 1.6 8.0 0.00 0.00 0.00 56 1012.7
20260905213939 35 222 1.6 8.0 0.00 0.00 0.00 57 1012.8
20260905213437 35 41 1.6 8.0 0.00 0.00 0.00 58 1012.8
20260905213157 34 90 0.0 0.0 0.00 0.00 0.00 58 1012.9
20260905212436 34 208 0.0 4.8 0.00 0.00 0.00 58 1012.9
20260905212154 34 82 0.0 6.4 0.00 0.00 0.00 58 1012.8
20260905211434 35 231 3.2 12.9 0.00 0.00 0.00 58 1013.0
20260905210934 35 257 3.2 12.9 0.00 0.00 0.00 58 1013.0
20260905210434 35 82 3.2 9.7 0.00 0.00 0.00 56 1013.1
20260905205935 35 193 4.8 11.3 0.00 0.00 0.00 52 1013.3
20260905205435 34 289 8.0 20.9 0.00 0.00 0.00 52 1013.3
20260905204931 35 305 4.8 20.9 0.00 0.00 0.00 54 1013.2
20260905204430 36 297 1.6 11.3 0.00 0.00 0.00 54 1013.1
20260905203929 37 339 3.2 9.7 0.00 0.00 0.00 53 1013.0
20260905203431 37 359 3.2 14.5 0.00 0.00 0.00 53 1013.0
20260905202931 37 1 3.2 14.5 0.00 0.00 0.00 52 1013.0
20260905202431 37 10 3.2 11.3 0.00 0.00 0.00 51 1013.0
20260905201929 37 253 3.2 11.3 0.00 0.00 0.00 51 1013.0
20260905201658 36 290 1.6 9.7 0.00 0.00 0.00 52 1013.1
20260905201154 36 3 1.6 9.7 0.00 0.00 0.00 52 1013.3
20260905200428 36 21 1.6 11.3 0.00 0.00 0.00 52 1013.4
20260905195933 37 8 3.2 12.9 0.00 0.00 0.00 51 1013.5
20260905195645 37 352 3.2 12.9 0.00 0.00 0.00 49 1013.5
20260905195601 37 6 4.8 12.9 0.00 0.00 0.00 50 1013.5
20260905194427 37 324 4.8 12.9 0.00 0.00 0.00 49 1013.4
20260905193928 37 12 4.8 12.9 0.00 0.00 0.00 51 1013.5
20260905193429 36 303 3.2 11.3 0.00 0.00 0.00 51 1013.5
20260905192928 36 10 1.6 9.7 0.00 0.00 0.00 51 1013.5
20260905192422 37 60 3.2 8.0 0.00 0.00 0.00 51 1013.6
20260905191916 37 93 3.2 11.3 0.00 0.00 0.00 49 1013.4
20260905191410 37 241 4.8 14.5 0.00 0.00 0.00 49 1013.5
20260905190905 37 339 4.8 14.5 0.00 0.00 0.00 49 1013.5
20260905190358 37 6 1.6 12.9 0.00 0.00 0.00 50 1013.6
20260905185852 37 96 1.6 9.7 0.00 0.00 0.00 48 1013.6
20260905185405 37 274 3.2 11.3 0.00 0.00 0.00 49 1013.7
20260905184853 37 35 4.8 11.3 0.00 0.00 0.00 49 1013.8
20260905184352 37 314 3.2 11.3 0.00 0.00 0.00 50 1013.8
20260905183853 37 69 1.6 8.0 0.00 0.00 0.00 50 1013.9
20260905183353 37 13 3.2 14.5 0.00 0.00 0.00 50 1014.0
20260905182854 37 359 4.8 14.5 0.00 0.00 0.00 50 1014.0
20260905182356 37 65 4.8 16.1 0.00 0.00 0.00 51 1014.1
20260905181852 36 314 4.8 16.1 0.00 0.00 0.00 50 1014.1
20260905181351 36 324 6.4 16.1 0.00 0.00 0.00 50 1014.1
20260905180853 36 282 8.0 16.1 0.00 0.00 0.00 49 1014.2
20260905180352 36 301 8.0 17.7 0.00 0.00 0.00 50 1014.3
20260905175852 36 314 6.4 17.7 0.00 0.00 0.00 50 1014.3
20260905175609 36 30 4.8 16.1 0.00 0.00 0.00 51 1014.3
20260905174851 36 346 6.4 12.9 0.00 0.00 0.00 50 1014.2
20260905174351 37 48 6.4 16.1 0.00 0.00 0.00 52 1014.3
20260905173857 36 289 4.8 16.1 0.00 0.00 0.00 51 1014.4
20260905173849 36 284 4.8 16.1 0.00 0.00 0.00 52 1014.4
20260905172845 36 309 6.4 16.1 0.00 0.00 0.00 51 1014.3
20260905172341 36 302 6.4 12.9 0.00 0.00 0.00 51 1014.5
20260905171842 36 342 6.4 12.9 0.00 0.00 0.00 52 1014.5
20260905171341 36 306 4.8 12.9 0.00 0.00 0.00 51 1014.6
20260905170847 36 20 4.8 14.5 0.00 0.00 0.00 54 1014.5
20260905170604 36 39 4.8 14.5 0.00 0.00 0.00 54 1014.7
20260905165841 36 33 4.8 12.9 0.00 0.00 0.00 54 1014.7
20260905165341 36 12 4.8 12.9 0.00 0.00 0.00 56 1014.7
20260905164841 36 130 3.2 11.3 0.00 0.00 0.00 55 1014.7
20260905164350 35 5 3.2 9.7 0.00 0.00 0.00 57 1014.8
20260905164340 36 61 1.6 9.7 0.00 0.00 0.00 55 1014.8
20260905163339 35 62 4.8 12.9 0.00 0.00 0.00 57 1014.8
20260905162839 35 299 4.8 12.9 0.00 0.00 0.00 57 1014.9
20260905162341 35 256 1.6 6.4 0.00 0.00 0.00 59 1014.9
20260905161839 35 353 1.6 6.4 0.00 0.00 0.00 60 1014.9
20260905161340 35 17 0.0 12.9 0.00 0.00 0.00 61 1015.1
20260905160854 34 91 1.6 12.9 0.00 0.00 0.00 60 1015.0
20260905160340 34 264 4.8 12.9 0.00 0.00 0.00 61 1015.0
20260905155839 34 287 3.2 12.9 0.00 0.00 0.00 61 1015.0
20260905155339 34 343 1.6 6.4 0.00 0.00 0.00 61 1015.1
20260905154839 34 324 1.6 8.0 0.00 0.00 0.00 61 1015.2
20260905154339 34 20 1.6 8.0 0.00 0.00 0.00 61 1015.3
20260905153840 33 305 1.6 6.4 0.00 0.00 0.00 63 1015.3
20260905153339 33 263 1.6 6.4 0.00 0.00 0.00 64 1015.2
20260905153102 33 245 1.6 6.4 0.00 0.00 0.00 63 1015.2
20260905152339 33 59 1.6 6.4 0.00 0.00 0.00 63 1015.2
20260905151845 33 324 1.6 9.7 0.00 0.00 0.00 65 1015.3
20260905151339 32 51 1.6 9.7 0.00 0.00 0.00 64 1015.3
20260905150840 32 353 1.6 11.3 0.00 0.00 0.00 65 1015.2
20260905150339 32 74 1.6 11.3 0.00 0.00 0.00 65 1015.1
20260905150056 32 355 1.6 6.4 0.00 0.00 0.00 67 1015.0
20260905145605 32 14 1.6 6.4 0.00 0.00 0.00 67 1015.1
20260905144839 31 295 1.6 6.4 0.00 0.00 0.00 68 1015.2
20260905144338 31 355 1.6 9.7 0.00 0.00 0.00 69 1015.0
20260905143838 31 246 1.6 9.7 0.00 0.00 0.00 69 1015.0
20260905143339 31 314 3.2 9.7 0.00 0.00 0.00 69 1015.0
20260905142839 31 261 3.2 9.7 0.00 0.00 0.00 70 1015.0
20260905142338 31 255 3.2 9.7 0.00 0.00 0.00 70 1015.0
20260905141838 31 332 4.8 12.9 0.00 0.00 0.00 69 1015.0
20260905141338 30 236 4.8 12.9 0.00 0.00 0.00 70 1014.9
20260905140833 30 336 3.2 12.9 0.00 0.00 0.00 71 1014.9
20260905140326 30 336 4.8 6.4 0.00 0.00 0.00 72 1015.0
20260905140045 30 345 4.8 9.7 0.00 0.00 0.00 72 1015.0
20260905135314 30 347 3.2 9.7 0.00 0.00 0.00 72 1015.0
20260905134809 29 285 3.2 9.7 0.00 0.00 0.00 72 1015.0
20260905134303 29 293 3.2 9.7 0.00 0.00 0.00 74 1015.0
20260905133756 28 323 3.2 11.3 0.00 0.00 0.00 75 1014.9
20260905133250 28 296 3.2 11.3 0.00 0.00 0.00 76 1015.0
20260905132744 27 275 0.0 6.4 0.00 0.00 0.00 78 1015.0
20260905132239 27 247 0.0 0.0 0.00 0.00 0.00 80 1015.0
20260905131733 27 284 0.0 0.0 0.00 0.00 0.00 82 1015.0
20260905131227 26 218 0.0 0.0 0.00 0.00 0.00 83 1015.0
20260905130721 26 218 0.0 1.6 0.00 0.00 0.00 84 1015.0
20260905130228 26 218 1.6 3.2 0.00 0.00 0.00 84 1015.0
20260905125709 26 218 0.0 3.2 0.00 0.00 0.00 86 1015.0
20260905125202 25 88 0.0 0.0 0.00 0.00 0.00 87 1014.9
20260905124657 25 88 0.0 0.0 0.00 0.00 0.00 88 1014.9
20260905124414 25 88 0.0 0.0 0.00 0.00 0.00 88 1014.8
20260905123909 25 88 0.0 0.0 0.00 0.00 0.00 88 1014.9
20260905123139 24 88 0.0 0.0 0.00 0.00 0.00 88 1014.7
20260905122853 24 88 0.0 0.0 0.00 0.00 0.00 88 1014.8
20260905122127 24 88 0.0 0.0 0.00 0.00 0.00 88 1014.7
20260905121633 24 88 0.0 0.0 0.00 0.00 0.00 88 1014.7
20260905121114 24 88 0.0 0.0 0.00 0.00 0.00 87 1014.8
20260905120609 24 88 0.0 0.0 0.00 0.00 0.00 87 1014.7
20260905120333 24 88 0.0 0.0 0.00 0.00 0.00 87 1014.5
20260905115557 24 88 0.0 0.0 0.00 0.00 0.00 87 1014.4
20260905115537 24 88 0.0 0.0 0.00 0.00 0.00 86 1014.4
20260905114810 24 88 0.0 0.0 0.00 0.00 0.00 86 1014.3
20260905114259 24 88 0.0 0.0 0.00 0.00 0.00 86 1014.3
20260905113532 24 88 0.0 0.0 0.00 0.00 0.00 86 1014.2
20260905113031 24 49 0.0 0.0 0.00 0.00 0.00 86 1014.1
20260905112524 25 49 0.0 0.0 0.00 0.00 0.00 85 1014.1
20260905112024 25 49 0.0 0.0 0.00 0.00 0.00 85 1014.1
20260905111743 25 49 0.0 0.0 0.00 0.00 0.00 85 1014.1
20260905111248 25 49 0.0 0.0 0.00 0.00 0.00 84 1014.0
20260905110521 25 49 0.0 0.0 0.00 0.00 0.00 83 1014.0
20260905110242 25 49 0.0 0.0 0.00 0.00 0.00 83 1014.0
20260905105518 25 49 0.0 0.0 0.00 0.00 0.00 83 1014.1
20260905105016 25 49 0.0 0.0 0.00 0.00 0.00 83 1014.0
20260905104512 25 49 0.0 0.0 0.00 0.00 0.00 82 1013.9
20260905104010 25 49 0.0 0.0 0.00 0.00 0.00 82 1014.0
20260905103510 25 306 0.0 0.0 0.00 0.00 0.00 82 1014.1
20260905103011 25 306 0.0 0.0 0.00 0.00 0.00 81 1014.1
20260905102510 26 306 0.0 0.0 0.00 0.00 0.00 81 1014.2
20260905102012 26 306 0.0 0.0 0.00 0.00 0.00 80 1014.0
20260905101510 26 306 0.0 0.0 0.00 0.00 0.00 80 1014.1
20260905101233 26 306 0.0 0.0 0.00 0.00 0.00 80 1014.2
20260905100510 26 306 0.0 0.0 0.00 0.00 0.00 80 1014.1
20260905100011 26 306 0.0 0.0 0.00 0.00 0.00 79 1014.2
20260905095509 26 306 0.0 0.0 0.00 0.00 0.00 79 1014.1
20260905095011 26 306 0.0 0.0 0.00 0.00 0.00 78 1014.1
20260905094954 26 306 0.0 0.0 0.00 0.00 0.00 78 1014.1
20260905094024 26 307 0.0 0.0 0.00 0.00 0.00 78 1014.1
20260905093510 27 281 0.0 0.0 0.00 0.00 0.00 77 1014.2
20260905093017 27 276 0.0 4.8 0.00 0.00 0.00 77 1014.1
20260905092458 27 282 1.6 4.8 0.00 0.00 0.00 77 1014.1
20260905091952 27 308 1.6 4.8 0.00 0.00 0.00 77 1014.0
20260905091447 27 286 1.6 6.4 0.00 0.00 0.00 78 1014.2
20260905090940 26 306 1.6 6.4 0.00 0.00 0.00 78 1014.3
20260905090434 26 328 1.6 6.4 0.00 0.00 0.00 78 1014.2
20260905090200 26 295 0.0 4.8 0.00 0.00 0.00 78 1014.2
20260905085422 26 275 0.0 0.0 0.00 0.00 0.00 78 1014.2
20260905084916 26 309 0.0 0.0 0.00 0.00 0.00 78 1014.3
20260905084410 26 297 0.0 0.0 0.00 0.00 0.00 78 1014.3
20260905083905 26 289 0.0 0.0 0.00 0.00 0.00 78 1014.3
20260905083632 27 307 0.0 3.2 0.00 0.00 0.00 78 1014.3
20260905082852 27 279 1.6 4.8 0.00 0.00 0.00 78 1014.2
20260905082346 27 320 0.0 4.8 0.00 0.00 0.00 78 1014.3
20260905082108 27 313 0.0 0.0 0.00 0.00 0.00 77 1014.4
20260905081334 27 301 0.0 0.0 0.00 0.00 0.00 77 1014.5
20260905080827 27 309 1.6 3.2 0.00 0.00 0.00 77 1014.5
20260905080322 27 311 1.6 4.8 0.00 0.00 0.00 77 1014.5
20260905075816 27 299 1.6 6.4 0.00 0.00 0.00 77 1014.4
20260905075310 27 270 3.2 6.4 0.00 0.00 0.00 76 1014.5
20260905074805 27 320 1.6 6.4 0.00 0.00 0.00 76 1014.5
20260905074258 27 266 0.0 6.4 0.00 0.00 0.00 75 1014.4
20260905073805 27 260 1.6 6.4 0.00 0.00 0.00 75 1014.4
20260905073517 27 299 3.2 6.4 0.00 0.00 0.00 75 1014.4
20260905073010 27 255 1.6 6.4 0.00 0.00 0.00 75 1014.2
20260905072234 27 301 0.0 3.2 0.00 0.00 0.00 75 1014.3
20260905071728 27 263 0.0 1.6 0.00 0.00 0.00 75 1014.3
20260905071222 27 252 1.6 8.0 0.00 0.00 0.00 75 1014.3
20260905070720 27 213 1.6 8.0 0.00 0.00 0.00 75 1014.4
20260905070439 27 247 1.6 8.0 0.00 0.00 0.00 75 1014.3
20260905065935 27 231 1.6 6.4 0.00 0.00 0.00 76 1014.2
20260905065222 27 263 1.6 4.8 0.00 0.00 0.00 76 1014.2
20260905064720 27 225 1.6 4.8 0.00 0.00 0.00 76 1014.2
20260905064219 27 213 1.6 8.0 0.00 0.00 0.00 76 1014.2
20260905063719 27 197 1.6 8.0 0.00 0.00 0.00 76 1014.3
20260905063442 27 262 0.0 4.8 0.00 0.00 0.00 76 1014.3
20260905062942 27 247 0.0 0.0 0.00 0.00 0.00 75 1014.3
20260905062217 27 181 0.0 0.0 0.00 0.00 0.00 75 1014.4
20260905061718 27 208 0.0 0.0 0.00 0.00 0.00 75 1014.4
20260905061214 27 200 0.0 0.0 0.00 0.00 0.00 75 1014.4
20260905060953 27 164 0.0 0.0 0.00 0.00 0.00 75 1014.5
20260905060216 27 229 0.0 0.0 0.00 0.00 0.00 75 1014.4
20260905055715 27 227 0.0 0.0 0.00 0.00 0.00 75 1014.5
20260905055217 27 184 0.0 0.0 0.00 0.00 0.00 75 1014.5
20260905054944 27 195 0.0 0.0 0.00 0.00 0.00 75 1014.6
20260905054216 27 195 0.0 0.0 0.00 0.00 0.00 75 1014.6
20260905053708 27 195 0.0 0.0 0.00 0.00 0.00 75 1014.6
20260905053433 27 195 0.0 0.0 0.00 0.00 0.00 75 1014.7
20260905052708 27 193 0.0 0.0 0.00 0.00 0.00 74 1014.7
20260905052207 27 193 0.0 0.0 0.00 0.00 0.00 74 1014.7
20260905052157 27 186 0.0 0.0 0.00 0.00 0.00 74 1014.7
20260905051208 27 186 0.0 0.0 0.00 0.00 0.00 74 1014.7
20260905050708 27 165 0.0 0.0 0.00 0.00 0.00 73 1014.7
20260905050432 28 157 0.0 0.0 0.00 0.00 0.00 73 1014.7
20260905045705 28 176 0.0 0.0 0.00 0.00 0.00 73 1014.8
20260905045206 28 179 0.0 0.0 0.00 0.00 0.00 73 1014.7
20260905044705 28 235 0.0 6.4 0.00 0.00 0.00 73 1014.7
20260905044205 28 153 0.0 6.4 0.00 0.00 0.00 73 1014.6
20260905043933 28 236 0.0 0.0 0.00 0.00 0.00 73 1014.7
20260905043205 28 183 0.0 0.0 0.00 0.00 0.00 73 1014.7
20260905042941 28 171 0.0 0.0 0.00 0.00 0.00 73 1014.7
20260905042441 28 201 0.0 0.0 0.00 0.00 0.00 72 1014.7
20260905041922 28 213 0.0 0.0 0.00 0.00 0.00 72 1014.7
20260905041426 28 172 0.0 0.0 0.00 0.00 0.00 72 1014.8
20260905040925 28 172 0.0 0.0 0.00 0.00 0.00 72 1014.8
20260905040156 28 147 0.0 0.0 0.00 0.00 0.00 72 1014.7
20260905035702 28 218 0.0 0.0 0.00 0.00 0.00 72 1014.7
20260905035159 28 177 0.0 0.0 0.00 0.00 0.00 72 1014.7
20260905034657 28 208 0.0 0.0 0.00 0.00 0.00 72 1014.6
20260905034150 28 213 0.0 0.0 0.00 0.00 0.00 72 1014.6
20260905033651 28 202 0.0 0.0 0.00 0.00 0.00 72 1014.6
20260905033145 28 200 0.0 0.0 0.00 0.00 0.00 72 1014.6
20260905032639 28 259 0.0 0.0 0.00 0.00 0.00 71 1014.7
20260905032134 28 172 0.0 0.0 0.00 0.00 0.00 72 1014.7
20260905031627 28 208 0.0 0.0 0.00 0.00 0.00 72 1014.7
20260905031350 28 159 0.0 0.0 0.00 0.00 0.00 72 1014.6
20260905030616 28 157 0.0 0.0 0.00 0.00 0.00 72 1014.6
20260905030122 28 213 0.0 0.0 0.00 0.00 0.00 71 1014.5
20260905025603 28 188 0.0 0.0 0.00 0.00 0.00 71 1014.5
20260905025056 28 195 0.0 0.0 0.00 0.00 0.00 71 1014.4
20260905024551 29 229 0.0 0.0 0.00 0.00 0.00 71 1014.5
20260905024045 29 208 0.0 0.0 0.00 0.00 0.00 71 1014.5
20260905024022 29 208 0.0 0.0 0.00 0.00 0.00 71 1014.5
20260905023525 29 189 0.0 0.0 0.00 0.00 0.00 71 1014.4
20260905022527 29 182 0.0 0.0 0.00 0.00 0.00 71 1014.4
20260905022248 29 193 0.0 0.0 0.00 0.00 0.00 71 1014.5
20260905021515 30 186 0.0 0.0 0.00 0.00 0.00 71 1014.5
20260905021010 30 201 0.0 0.0 0.00 0.00 0.00 71 1014.4
20260905020503 30 201 0.0 0.0 0.00 0.00 0.00 71 1014.3
20260905015958 30 201 0.0 0.0 0.00 0.00 0.00 70 1014.3
20260905015452 30 201 0.0 0.0 0.00 0.00 0.00 70 1014.4
20260905014945 30 201 0.0 0.0 0.00 0.00 0.00 70 1014.4
20260905014439 30 201 0.0 0.0 0.00 0.00 0.00 69 1014.3
20260905013934 30 201 0.0 0.0 0.00 0.00 0.00 68 1014.2
20260905013427 31 201 0.0 0.0 0.00 0.00 0.00 68 1014.1
20260905012921 31 201 0.0 0.0 0.00 0.00 0.00 67 1014.0
20260905012415 31 201 0.0 0.0 0.00 0.00 0.00 66 1013.9
20260905011910 31 236 0.0 0.0 0.00 0.00 0.00 65 1013.9
20260905011404 31 203 0.0 0.0 0.00 0.00 0.00 65 1013.9
20260905010857 32 218 0.0 0.0 0.00 0.00 0.00 64 1013.8
20260905010351 32 218 0.0 0.0 0.00 0.00 0.00 63 1013.9
20260905005845 32 241 0.0 0.0 0.00 0.00 0.00 62 1013.9
20260905005608 32 243 0.0 0.0 0.00 0.00 0.00 62 1013.8
20260905004833 32 258 1.6 6.4 0.00 0.00 0.00 61 1013.8
20260905004327 33 297 1.6 6.4 0.00 0.00 0.00 60 1013.9
20260905003821 33 284 1.6 8.0 0.00 0.00 0.00 60 1013.8
20260905003315 33 235 0.0 8.0 0.00 0.00 0.00 59 1013.7
20260905002815 33 250 0.0 4.8 0.00 0.00 0.00 59 1013.7
20260905002533 33 250 1.6 6.4 0.00 0.00 0.00 58 1013.8
20260905001816 33 301 3.2 6.4 0.00 0.00 0.00 57 1013.8
20260905001544 34 237 1.6 6.4 0.00 0.00 0.00 57 1013.7
20260905000811 34 276 1.6 11.3 0.00 0.00 0.00 56 1013.8
20260905000310 34 243 3.2 11.3 0.00 0.00 0.00 55 1013.7
20260904235810 35 245 1.6 8.0 0.00 0.00 0.00 54 1013.7
20260904235309 35 257 3.2 9.7 0.00 0.00 0.00 54 1013.7
20260904234810 35 257 4.8 11.3 0.00 0.00 0.00 52 1013.6
20260904234312 35 267 4.8 11.3 0.00 0.00 0.00 51 1013.7
20260904233811 36 234 4.8 12.9 0.00 0.00 0.00 51 1013.7
20260904233800 36 279 4.8 12.9 0.00 0.00 0.00 50 1013.7
20260904232813 36 271 4.8 12.9 0.00 0.00 0.00 50 1013.7
20260904231807 37 283 3.2 9.7 0.00 0.00 0.00 49 1013.6
20260904231320 37 6 4.8 12.9 0.00 0.00 0.00 48 1013.6
20260904231037 37 266 4.8 12.9 0.00 0.00 0.00 48 1013.6
20260904230532 37 290 4.8 11.3 0.00 0.00 0.00 47 1013.6
20260904225812 37 262 4.8 12.9 0.00 0.00 0.00 47 1013.6
20260904225536 37 262 1.6 12.9 0.00 0.00 0.00 48 1013.7
20260904225027 37 283 1.6 11.3 0.00 0.00 0.00 49 1013.6
20260904224752 37 237 3.2 11.3 0.00 0.00 0.00 48 1013.6